Weather History for Greenville, ME

Change the Weather History Date:

Sunday, February 17, 2013

  Actual Average (KMLT) Record (KMLT)
Temperature  
Mean Temperature 11 °F 19 °F  
Max Temperature 14 °F 29 °F 48 °F (1984)
Min Temperature 7 °F 9 °F -32 °F (1934)
Degree Days  
Heating Degree Days 54 46  
Month to date heating degree days 824  
Since 1 July heating degree days 5570  
Cooling Degree Days 0 0  
Month to date cooling degree days 0  
Year to date cooling degree days 0  
Moisture  
Dew Point 7 °F    
Average Humidity 81    
Maximum Humidity 88    
Minimum Humidity 71    
Precipitation  
Precipitation 0.21 in 0.08 in 2.35 in (1955)
Month to date precipitation 1.14  
Year to date precipitation 4.07  
Sea Level Pressure  
Sea Level Pressure 29.39 in    
Wind  
Wind Speed 17 mph (NW)    
Max Wind Speed 32 mph    
Max Gust Speed 48 mph    
T = Trace of Precipitation, MM = Missing Value Source: NWS Daily Summary

Daily Weather History Graph

Daily Weather History Graph

Search for Another Location

Airport:

Trip Planner

Search our weather history database for the weather conditions in past years. The results will help you decide how hot, cold, wet, or windy it might be!

Date:

Astronomy

Feb. 17, 2013 Rise Set
Actual Time 6:36 AM EST 5:08 PM EST
Civil Twilight 6:06 AM EST 5:39 PM EST
Nautical Twilight 5:31 AM EST 6:13 PM EST
Astronomical Twilight 4:57 AM EST 6:47 PM EST
Moon 10:04 AM EST (2/17) 12:23 AM EST (2/17)
Length of Visible Light 11h 32m
Length of Day
10h 32m
Waxing Crescent, 49% of the Moon is Illuminated
Feb 17
Waxing Crescent
Feb 17
First Quarter
Feb 25
Full
Mar 4
Last Quarter
Mar 11
New

Hourly Weather History & Observations

Time (EST) Temp. Windchill Dew Point Humidity Pressure Visibility Wind Dir Wind Speed Gust Speed Precip Events Conditions
12:56 AM 12.9 °F -0.9 °F 6.1 °F 74% 29.79 in - NNW 11.5 mph 20.7 mph N/A   Unknown
1:56 AM 12.9 °F 0.7 °F 6.1 °F 74% 29.75 in - NW 9.2 mph 18.4 mph N/A   Unknown
2:56 AM 12.9 °F -3.4 °F 5.0 °F 71% 29.72 in - NNW 16.1 mph 20.7 mph N/A   Unknown
3:56 AM 12.0 °F -2.0 °F 5.0 °F 73% 29.67 in - NNW 11.5 mph 20.7 mph N/A   Unknown
4:56 AM 12.0 °F 0.5 °F 6.1 °F 77% 29.65 in - North 8.1 mph 18.4 mph N/A   Unknown
5:56 AM 12.0 °F -2.7 °F 7.0 °F 80% 29.60 in - NNW 12.7 mph 24.2 mph N/A   Unknown
6:56 AM 10.9 °F -4.7 °F 8.1 °F 88% 29.57 in - NNW 13.8 mph 25.3 mph 0.01 in   Unknown
7:56 AM 12.0 °F -6.0 °F 9.0 °F 88% 29.51 in - NNW 19.6 mph 28.8 mph 0.01 in   Unknown
8:56 AM 12.9 °F -5.3 °F 9.0 °F 84% 29.46 in - NNW 20.7 mph 35.7 mph 0.03 in   Unknown
9:56 AM 12.9 °F -5.7 °F 9.0 °F 84% 29.40 in - NNW 21.9 mph 34.5 mph N/A   Unknown
10:56 AM 12.9 °F -7.6 °F 9.0 °F 84% 29.36 in - NNW 27.6 mph 41.4 mph N/A   Unknown
11:56 AM 12.9 °F -8.0 °F 10.0 °F 88% 29.30 in - NNW 28.8 mph 43.7 mph 0.02 in   Unknown
12:56 PM 14.0 °F -7.4 °F 10.9 °F 88% 29.22 in - NNW 32.2 mph 46.0 mph 0.02 in   Unknown
1:56 PM 12.0 °F -8.8 °F 9.0 °F 88% 29.20 in - NW 27.6 mph 44.9 mph 0.03 in   Unknown
2:56 PM 12.0 °F -8.8 °F 8.1 °F 84% 29.18 in - NW 27.6 mph 44.9 mph 0.01 in   Unknown
3:56 PM 12.9 °F -8.9 °F 9.0 °F 84% 29.16 in - NW 32.2 mph 48.3 mph 0.02 in   Unknown
4:56 PM 12.9 °F -4.9 °F 10.0 °F 88% 29.15 in - NW 19.6 mph 40.3 mph 0.02 in   Unknown
5:56 PM 12.0 °F -8.8 °F 8.1 °F 84% 29.17 in - NW 27.6 mph 47.2 mph 0.02 in   Unknown
6:56 PM 10.9 °F -8.3 °F 6.1 °F 81% 29.21 in - NW 21.9 mph 39.1 mph 0.01 in   Unknown
7:56 PM 10.0 °F -9.1 °F 3.9 °F 76% 29.23 in - NW 20.7 mph 39.1 mph 0.01 in   Unknown
8:56 PM 9.0 °F -9.0 °F 3.9 °F 80% 29.25 in - NW 17.3 mph 35.7 mph N/A   Unknown
9:56 PM 9.0 °F -5.9 °F 3.9 °F 80% 29.28 in - NW 11.5 mph 35.7 mph N/A   Unknown
10:56 PM 8.1 °F -9.0 °F 1.9 °F 76% 29.30 in - NW 15.0 mph 34.5 mph N/A   Unknown
11:56 PM 7.0 °F -10.4 °F -0.0 °F 73% 29.31 in - NW 15.0 mph 32.2 mph N/A   Unknown